This demonstration page uses our WeatherBlox Daily Observations layout. Learn more.

Left ArrowRight Arrow

36.19886, -115.1175

Hourly Observations for February 21, 2022

Temp ( °F °C ) Dew Point ( °F °C ) Humidity (%) Winds ( mph kmh ) Pressure ( in mb ) Visibility ( mi km ) Precip ( " mm )
12:53 am 00:53 Clear 63 17.2 19 -7.2 18 18 WSW 14 22 29.68 1005 10 16 0.00 0.00
1:53 am 01:53 Clear 62 16.7 18 -7.8 18 18 SSW 16 26 29.66 1004 10 16 0.00 0.00
2:53 am 02:53 Clear 61 16.1 19 -7.2 20 20 S 22 35 29.62 1003 10 16 0.00 0.00
3:53 am 03:53 Clear 60 15.6 19 -7.2 20 20 S 23 37 29.59 1002 10 16 0.00 0.00
4:53 am 04:53 Clear 61 16.1 19 -7.2 20 20 undefined N/A 29.58 1002 10 16 0.00 0.00
5:53 am 05:53 Clear 60 15.6 20 -6.7 21 21 undefined N/A 29.59 1002 10 16 0.00 0.00
6:53 am 06:53 Sunny 59 15 21 -6.1 23 23 SSW 18 30 29.58 1002 10 16 0.00 0.00
7:53 am 07:53 Sunny 60 15.6 22 -5.6 23 23 undefined N/A 29.58 1002 10 16 0.00 0.00
8:53 am 08:53 Sunny 62 16.7 20 -6.7 20 20 undefined N/A 29.57 1001 10 16 0.00 0.00
9:53 am 09:53 Sunny 63 17.2 22 -5.6 21 21 undefined N/A 29.55 1001 10 16 0.00 0.00
10:53 am 10:53 Sunny 65 18.3 22 -5.6 19 19 undefined N/A 29.56 1001 10 16 0.00 0.00
11:53 am 11:53 Sunny 66 18.9 19 -7.2 16 16 undefined N/A 29.56 1001 10 16 0.00 0.00
12:53 pm 12:53 Sunny 66 18.9 20 -6.7 17 17 undefined N/A 29.55 1001 10 16 0.00 0.00
1:53 pm 13:53 Sunny 67 19.4 19 -7.2 16 16 undefined N/A 29.56 1001 9 14 0.00 0.00
2:53 pm 14:53 Sunny 68 20 15 -9.4 13 13 undefined N/A 29.55 1001 10 16 0.00 0.00
3:53 pm 15:53 Mostly Sunny 68 20 11 -11.7 11 11 undefined N/A 29.56 1001 8 13 0.00 0.00
4:53 pm 16:53 Sunny 66 18.9 7 -13.9 10 10 undefined N/A 29.57 1001 10 16 0.00 0.00
5:53 pm 17:53 Clear 63 17.2 10 -12.2 12 12 undefined N/A 29.60 1002 10 16 0.00 0.00
6:53 pm 18:53 Clear 61 16.1 11 -11.7 14 14 undefined N/A 29.64 1004 10 16 0.00 0.00
7:53 pm 19:53 Clear 59 15 12 -11.1 15 15 WSW 12 19 29.67 1005 10 16 0.00 0.00
8:53 pm 20:53 Clear 58 14.4 12 -11.1 16 16 WSW 9 15 29.69 1006 10 16 0.00 0.00
9:53 pm 21:53 Clear 56 13.3 14 -10 19 19 undefined N/A 29.72 1006 10 16 0.00 0.00
10:53 pm 22:53 Clear 53 11.7 12 -11.1 19 19 N 7 11 29.73 1007 10 16 0.00 0.00
11:53 pm 23:53 Clear 50 10 11 -11.7 21 21 N 7 11 29.75 1008 10 16 0.00 0.00

Powered by AerisWeather